Regional Weather Roundup
Issued by NWS

Home | Current Version | Previous Version | Graphics & Text | Print | Product List | Glossary On
Versions: 1 2 3 4 5 6 7 8 9 10 11 12 13 14 15 16 17 18 19 20 21 22 23 24 25 26 27 28 29 30 31 32 33 34 35 36 37 38 39 40 41 42 43 44 45 46 47 48 49 50
000
ASUS43 KIND 020759
RWRIN

WEATHER ROUNDUP FOR INDIANA
NATIONAL WEATHER SERVICE INDIANAPOLIS IN
400 AM EDT SAT AUG 02 2014

NOTE: "FAIR" INDICATES FEW OR NO CLOUDS BELOW 12,000 FEET WITH NO
SIGNIFICANT WEATHER AND/OR OBSTRUCTIONS TO VISIBILITY.

* - STATION DOES NOT REPORT WEATHER SUCH AS PRECIPITATION OR FOG.

+ - STATION NOT QUALITY CONTROLLED BY THE NATIONAL WEATHER SERVICE.
    USE DATA WITH CAUTION...ESPECIALLY DEWPOINT AND RELATIVE
    HUMIDITY OBSERVATIONS.

INZ001>003-010>013-019-020-020900-
NORTHWEST INDIANA

CITY           SKY/WX    TMP DP  RH WIND       PRES   REMARKS
KNOX *+          N/A     56  54  94 CALM      30.08F
MONTICELLO +   MOCLDY    60  59  97 CALM      30.08S
RENSSELAER +   PTCLDY    55  55 100 CALM      30.09S FOG
VALPARAISO     CLEAR     56  54  93 CALM      30.10R

$$

LMZ046-743>745-020900-
SOUTHERN LAKE MICHIGAN

STATION/POSITION TIME  TEMP WIND        PRES
                       AIR  DIR/SP/G
                 (UTC) (F)  (DEG/KT/KT) (MB)
MICHIGAN CITY    0700   64  130/  3/  4   N/A

$$

INZ004-005-014>016-021>024-020900-
NORTH CENTRAL INDIANA

CITY           SKY/WX    TMP DP  RH WIND       PRES   REMARKS
GOSHEN         PTCLDY    60  58  92 CALM      30.10S FOG
SOUTH BEND     CLEAR     57  53  86 NE3       30.09F
WARSAW +       PTCLDY    57  57 100 CALM      30.10S FOG

$$

INZ006>009-017-018-025>027-020900-
NORTHEAST INDIANA

CITY           SKY/WX    TMP DP  RH WIND       PRES   REMARKS
ANGOLA *+      CLEAR     63  52  67 CALM      30.11S
FORT WAYNE     MOCLDY    62  57  83 CALM      30.08F

$$

INZ028-029-035-036-043>045-051>053-020900-
WEST CENTRAL INDIANA

CITY           SKY/WX    TMP DP  RH WIND       PRES   REMARKS
GREENCASTLE +  CLOUDY    63  59  88 E5        30.07F
LAFAYETTE      CLOUDY    62  60  93 CALM      30.08S FOG
TERRE HAUTE    CLOUDY    64  62  93 SE6       30.07F FOG

$$

INZ030>032-037>040-046>048-054>057-064-065-020900-
CENTRAL INDIANA

CITY           SKY/WX    TMP DP  RH WIND       PRES   REMARKS
INDIANAPOLIS   CLOUDY    63  60  90 NW5       30.08F
-EAGLE CREEK   CLOUDY    64  59  83 CALM      30.07F
KOKOMO *+      CLOUDY    64  61  88 N6        30.09S
MT COMFORT *+  CLOUDY    64  64 100 CALM      30.09S
SHELBYVILLE    LGT RAIN  67  62  84 N7        30.08S

$$

INZ033-034-041-042-049-050-058-059-020900-
EAST CENTRAL INDIANA

CITY           SKY/WX    TMP DP  RH WIND       PRES   REMARKS
MUNCIE         CLOUDY    64  60  87 CALM      30.08F

$$

INZ060-061-067>069-081>083-085>088-020900-
SOUTHWEST INDIANA

CITY           SKY/WX    TMP DP  RH WIND       PRES   REMARKS
EVANSVILLE     CLOUDY    70  63  78 CALM      30.06F

$$

INZ062-063-066-070>080-084-089>092-020900-
SOUTH CENTRAL AND SOUTHEAST INDIANA

CITY           SKY/WX    TMP DP  RH WIND       PRES   REMARKS
BLOOMINGTON    CLOUDY    64  61  90 CALM      30.08S

$$




USA.gov is the U.S. government's official web portal to all federal, state and local government web resources and services.